User: anonymous   Login
Location: Ferma
(41.9500°N, 44.5167°E)
Time: 07:55:44
(UTC+00:00)
Language:

Lacrosse 4 Rocket - Orbit

View from above orbital plane
View from above orbital plane
View from above satellite
View from above satellite

Ground track
Ground track

The orbit data is extracted from the following two-line orbital elements,

1 26474U 00047B   22023.95045570  .00000438  00000-0  48127-4 0  9999
2 26474  67.9930 263.6421 0060895 273.3089  86.1089 14.96391962166828
Epoch (UTC): 23 January 2022 22:48:39
Eccentricity: 0.0060895
inclination: 67.9930°
perigee height: 536 km
apogee height: 620 km
right ascension of ascending node: 263.6421°
argument of perigee: 273.3089°
revolutions per day: 14.96391962
mean anomaly at epoch: 86.1089°
orbit number at epoch: 16682

The dashed part of the orbit path shows where the satellite is in the earth's shadow,  

DLR